Regional Weather Roundup
Issued by NWS

Home | Current Version | Previous Version | Graphics & Text | Print | Product List | Glossary On
Versions: 1 2 3 4 5 6 7 8 9 10 11 12 13 14 15 16 17 18 19 20 21 22 23 24 25 26 27 28 29 30 31 32 33 34 35 36 37 38 39 40 41 42 43 44 45 46 47 48 49 50
000
ASUS43 KDTX 290110
RWRMI
MICHIGAN HOURLY REGIONAL WEATHER ROUNDUP
NATIONAL WEATHER SERVICE DETROIT/PONTIAC MI
900 PM EDT FRI AUG 28 2015

NOTE: "FAIR" INDICATES FEW OR NO CLOUDS BELOW 12,000 FEET WITH NO
SIGNIFICANT WEATHER AND/OR OBSTRUCTION TO VISIBILITY.

MIZ047>049-052>055-059>063-066>070-074>076-081>083-290200-
SOUTHEAST LOWER MICHIGAN

CITY           SKY/WX    TMP DP  RH WIND       PRES   REMARKS
ADRIAN         MOCLDY    66  60  81 CALM      30.14R
ALMA           CLOUDY    65  63  92 CALM      30.12R
ANN ARBOR      CLOUDY    65  60  84 CALM      30.13S
BAD AXE        MOCLDY    61  58  88 CALM      30.13R FOG
DETROIT CITY   CLOUDY    68  57  68 SE5       30.14R
DETROIT        MOCLDY    68  59  73 CALM      30.14R
FLINT          CLOUDY    70  59  68 S3        30.12S
GROSSE ILE     MOCLDY    70  63  78 SE3       30.13R
HILLSDALE      MOCLDY    64  64  99 CALM      30.14R
HOWELL         CLOUDY    67  60  78 CALM      30.12F

CITY           SKY/WX    TMP DP  RH WIND       PRES   REMARKS
JACKSON        MOCLDY    66  62  87 CALM      30.12S
LAMBERTVILLE   CLOUDY    66  61  85 CALM      30.14R
LANSING        MOCLDY    66  60  81 CALM      30.12S
LAPEER         NOT AVBL
MASON          MOCLDY    66  61  82 CALM      30.12S
MT. CLEMENS    CLOUDY    65  61  84 SE7       30.12R
PONTIAC        CLOUDY    68  59  73 S5        30.13R
PORT HOPE        N/A     65  59  81 S6        30.11S
PORT HURON     CLOUDY    61  59  94 CALM      30.14S
TRI CITIES     CLOUDY    69  61  75 S5        30.12R
YPSILANTI      CLOUDY    67  59  75 SE3       30.14R
$$
MIZ043>046-050>051-056>058-064>065-071>073-077>080-290200-
SOUTHWEST LOWER MICHIGAN

CITY           SKY/WX    TMP DP  RH WIND       PRES   REMARKS
BATTLE CREEK   MOCLDY    72  61  68 NE3       30.12S
BENTON HARBOR  CLOUDY    68  63  84 CALM      30.09R
BIG RAPIDS     CLOUDY    65  62  88 CALM      30.11S
COLDWATER      MOCLDY    65  64  96 CALM      30.12S
HOLLAND        CLOUDY    68  62  81 CALM      30.10F
GRAND RAPIDS   CLOUDY    69  62  78 SE3       30.11S
KALAMAZOO      CLOUDY    71  61  70 CALM      30.10F
MARSHALL       MOCLDY    66  63  88 CALM      30.11S
MUSKEGON       LGT RAIN  69  60  73 CALM      30.11R
$$
MIZ016>042-290200-
NORTHERN LOWER MICHIGAN

CITY           SKY/WX    TMP DP  RH WIND       PRES   REMARKS
ALPENA         MOCLDY    64  57  78 S6        30.09R
BEAVER ISLAND  CLOUDY    67  61  82 SW7       30.05S
BELLAIRE       CLOUDY    69  60  72 CALM      30.08R
CADILLAC       CLOUDY    66  59  79 S5        30.10S
CHARLEVOIX     CLOUDY    67  58  72 S5        30.09F
FRANKFORT      DRIZZLE   67  63  88 SW6       30.08S
GAYLORD        CLOUDY    66  59  78 W5        30.11R
GRAYLING       CLOUDY    65  58  75 CALM      30.11R
HARBOR SPRINGS CLOUDY    67  62  84 SW6       30.07S
HOUGHTON LAKE  CLOUDY    66  58  75 SW7       30.11S
MANISTEE       CLOUDY    66  57  72 CALM      30.10S
OSCODA         MOCLDY    65  57  76 S5        30.10S
PELLSTON       CLOUDY    66  60  81 CALM      30.08R
TRAVERSE CITY  CLOUDY    70  58  65 SW3       30.08R
$$
MIZ007>008-015-290200-
EASTERN UPPER MICHIGAN

CITY           SKY/WX    TMP DP  RH WIND       PRES   REMARKS
KINROSS        CLOUDY    64  61  88 CALM      30.06R
MACKINAC ISLAN CLOUDY    67  58  74 SW8       30.06S
NEWBERRY       CLOUDY    64  61  88 SW12      30.04R
S. S. MARIE    CLOUDY    66  57  72 S3        30.05R
$$
MIZ004>006-011>014-085-290200-
CENTRAL UPPER MICHIGAN

CITY           SKY/WX    TMP DP  RH WIND       PRES   REMARKS
MANISTIQUE     CLOUDY    63  61  93 SW9       30.03S
ESCANABA       CLOUDY    66  61  82 S7        30.01R
MENOMINEE      CLOUDY    64  57  77 SW5       30.04S
SAWYER-GWINN   MOCLDY    70  63  78 S9        30.01R
$$
MIZ001>003-009>011-084-290200-
WESTERN UPPER MICHIGAN

CITY           SKY/WX    TMP DP  RH WIND       PRES   REMARKS
IRON MOUNTAIN  CLOUDY    69  62  78 SW7       30.03R
HOUGHTON       LGT RAIN  67  64  90 SW6       29.97R
COPPER HARBOR    N/A     64  61  90 VRB7      29.94R
IRONWOOD       PTCLDY    70  63  78 S9        29.97R
$$

ABBREVIATIONS USED IN REMARKS
   TC - TEMPERATURE IN CELSIUS
  WCI - WIND CHILL INDEX
   HX - HEAT INDEX
  VSB - VISIBILITY




USA.gov is the U.S. government's official web portal to all federal, state and local government web resources and services.